CAPE
0 0 70 79 35 0 0 0 0 0 0 0 0 0 0 0 0 0 0 0 0 0 0 0 0 0 0 0 0 0 0 0 0 0 225 434 309 298 485 360 432 764 490
0 0 50 89 16 0 0 0 0 0 0 0 0 0 0 0 0 0 0 0 0 0 0 0 0 0 0 0 0 0 0 0 0 0 2 313 322 382 471 466 373 587 543
0 0 67 128 35 0 0 0 0 0 0 0 0 0 0 0 0 0 0 0 0 0 0 0 0 0 0 0 0 0 0 0 0 0 0 209 483 461 452 473 420 372 392
0 0 36 114 26 0 0 0 0 0 0 0 0 0 0 0 0 0 0 0 0 0 0 2 8 5 0 0 0 0 0 0 0 0 0 0 311 407 503 513 311 416 260
0 5 53 118 27 17 7 0 0 1 0 0 0 0 0 0 0 0 0 0 0 0 0 7 16 13 3 0 0 1 0 0 0 0 0 0 94 298 568 603 357 348 204
0 77 130 127 95 84 67 69 109 64 8 0 0 12 4 10 34 94 158 136 52 10 5 28 2 2 112 33 0 0 0 0 0 0 0 0 0 217 255 671 433 333 230
0 71 243 313 221 180 207 261 226 125 61 100 184 194 193 228 273 339 346 163 133 88 63 24 3 1 3 66 91 17 3 0 1 5 0 0 0 0 121 497 659 246 269
41 22 342 470 375 335 373 454 425 332 335 397 397 448 435 571 554 443 340 304 251 173 98 67 15 4 26 25 54 68 43 18 16 9 4 0 0 0 82 321 662 229 359
134 122 312 630 649 584 536 531 613 543 475 538 598 671 669 640 503 244 39 7 4 20 65 75 24 12 43 56 55 63 52 63 28 33 1 0 0 0 163 485 558 550 338
162 248 345 540 829 801 762 859 720 677 565 522 776 900 450 133 0 0 0 0 0 0 1 1 2 6 9 14 48 71 72 59 12 23 9 0 0 0 95 411 691 690 272
116 265 335 454 819 864 763 999 1043 871 690 804 632 313 29 0 0 0 0 0 0 0 3 5 2 7 13 10 54 68 73 53 22 18 5 0 0 0 0 297 675 833 595
81 138 247 403 683 830 911 1071 1072 909 576 502 395 119 89 107 21 0 0 0 0 0 6 17 49 23 74 25 29 68 58 62 68 3 0 8 0 0 0 260 615 716 752
102 172 232 426 628 771 902 1019 1015 722 570 547 200 89 66 15 0 0 0 0 0 0 0 1 0 0 9 49 40 32 44 74 51 5 0 0 0 0 42 272 653 676 735
67 148 296 454 513 697 789 687 553 406 300 121 119 97 94 38 0 0 0 0 0 0 0 5 3 3 34 70 59 32 29 52 61 28 0 0 0 0 119 347 581 692 708
23 70 305 430 448 637 558 408 261 197 77 41 70 35 28 12 1 0 0 0 0 0 20 45 45 42 69 102 99 87 51 36 76 40 0 0 0 0 80 491 549 701 756
0 12 81 315 548 542 298 160 82 62 14 30 19 18 0 0 0 0 0 4 14 32 49 63 46 57 49 85 97 110 95 80 74 0 0 0 0 0 42 408 464 606 699
0 0 15 224 460 351 173 87 3 0 7 22 25 30 0 0 0 19 43 49 39 36 14 48 65 63 69 71 85 105 119 126 3 0 0 0 14 0 32 388 206 438 680
0 0 0 28 202 207 107 0 0 0 21 21 41 45 5 5 48 87 87 82 80 30 8 53 51 36 24 34 70 88 105 73 2 0 3 7 162 316 447 364 269 294 462
0 0 0 0 44 57 4 0 0 12 18 37 50 51 41 42 62 66 119 108 80 51 33 65 61 37 13 19 57 96 59 3 35 2 64 333 585 716 700 565 341 447 309
0 0 0 0 10 1 0 0 0 13 35 52 72 69 93 98 97 74 89 73 76 59 62 82 52 30 33 49 53 61 75 78 107 151 221 397 545 749 897 767 734 549 334
0 0 0 0 0 0 0 0 2 28 61 78 77 95 162 224 160 157 118 61 1 27 120 107 58 21 33 112 127 160 239 408 246 319 311 464 680 744 965 927 835 682 434
0 0 0 0 0 0 0 0 40 82 110 103 103 143 254 268 224 128 41 25 9 89 122 94 45 31 44 199 174 208 99 125 417 607 464 541 615 892 858 988 1010 920 688
0 0 0 0 0 0 0 0 10 15 7 50 59 104 124 79 51 93 74 72 144 161 124 85 68 62 121 224 207 293 100 10 218 523 525 424 650 912 777 905 853 602 351
0 0 0 0 0 0 0 0 11 83 82 5 31 33 55 0 67 130 167 153 211 223 148 103 134 171 152 135 290 167 144 450 65 204 426 511 610 829 685 601 453 289 237
0 0 0 0 0 0 0 3 48 80 0 0 4 0 26 54 99 92 171 200 229 174 227 107 72 120 145 142 157 150 312 358 517 331 229 494 426 479 387 416 263 90 25
0 0 0 0 0 0 2 14 95 27 0 0 0 17 27 57 78 194 80 157 213 206 197 74 124 153 260 125 88 69 151 277 475 397 354 335 189 349 378 228 113 34 44
CIN
-0 -0 -554 -477 -487 -0 -0 -0 -0 -0 -0 -0 -0 -0 -0 -0 -0 -0 -0 -0 -0 -0 -0 -0 -0 -0 -0 -0 -0 -0 -0 -0 -0 -0 -43 -12 -18 -15 -8 -12 -9 -0 -13
-0 -0 -527 -455 -238 -0 -0 -0 -0 -0 -0 -0 -0 -0 -0 -0 -0 -0 -0 -0 -0 -0 -0 -0 -0 -0 -0 -0 -0 -0 -0 -0 -0 -0 -10 -22 -29 -15 -10 -8 -17 -0 -6
-0 -0 -498 -457 -444 -0 -0 -0 -0 -0 -0 -0 -0 -0 -0 -0 -0 -0 -0 -0 -0 -0 -0 -0 -0 -0 -0 -0 -0 -0 -0 -0 -0 -0 -0 -63 -5 -21 -18 -11 -14 -11 -8
-0 -0 -510 -464 -428 -0 -0 -0 -0 -0 -0 -0 -0 -0 -0 -0 -0 -0 -0 -0 -0 -0 -0 -0 -0 -0 -0 -0 -0 -0 -0 -0 -0 -0 -0 -0 -32 -26 -27 -9 -18 -9 -12
-0 -295 -483 -440 -415 -374 -232 -0 -0 -27 -0 -0 -0 -0 -0 -0 -0 -0 -0 -0 -0 -0 -0 -0 -13 -0 -0 -0 -0 -0 -0 -0 -0 -0 -0 -0 -95 -36 -14 -7 -9 -3 -8
-0 -488 -434 -414 -377 -328 -335 -298 -256 -235 -223 -0 -0 -216 -169 -172 -145 -102 -91 -107 -161 -0 -0 -77 -0 -1 -163 -70 -0 -0 -0 -0 -0 -0 -0 -0 -0 -49 -56 -1 -5 -3 -4
-0 -501 -411 -388 -377 -331 -285 -242 -215 -220 -213 -175 -127 -87 -44 -15 -8 -7 -17 -103 -118 -150 -184 -24 -0 -0 -0 -234 -212 -0 -3 -0 -0 -0 -0 -0 -0 -0 -106 -11 -0 -6 -1
-394 -502 -397 -372 -331 -290 -246 -209 -182 -166 -136 -91 -65 -30 -17 -0 -0 -0 -6 -25 -59 -83 -133 -179 -0 -1 -1 -1 -0 -95 -0 -1 -0 -1 -0 -0 -0 -0 -117 -35 -0 -5 -4
-409 -462 -412 -306 -290 -257 -227 -210 -157 -131 -122 -73 -32 -5 -1 -1 -0 -13 -3 -29 -39 -208 -152 -155 -0 -2 -2 -0 -0 -2 -2 -0 -1 -1 -0 -0 -0 -0 -55 -0 -0 -0 -0
-418 -410 -387 -324 -242 -208 -179 -157 -150 -130 -125 -93 -14 -0 -16 -74 -0 -0 -0 -0 -0 -0 -0 -0 -0 -1 -0 -1 -1 -1 -0 -0 -1 -1 -0 -0 -0 -0 -89 -0 -0 -0 -1
-434 -429 -410 -348 -270 -209 -170 -123 -90 -102 -114 -61 -58 -110 -87 -0 -0 -0 -0 -0 -0 -0 -0 -0 -0 -0 -0 -0 -0 -0 -4 -0 -0 -1 -1 -0 -0 -0 -0 -8 -0 -0 -0
-348 -431 -432 -398 -317 -244 -178 -122 -85 -89 -143 -145 -133 -183 -158 -89 -167 -0 -0 -0 -0 -0 -0 -96 -80 -46 -96 -1 -1 -0 -0 -1 -1 -1 -0 -4 -0 -0 -0 -7 -0 -0 -0
-305 -378 -436 -423 -347 -246 -168 -135 -98 -149 -167 -144 -218 -215 -177 -194 -9 -0 -0 -0 -0 -0 -0 -1 -0 -0 -7 -111 -0 -0 -1 -0 -1 -1 -0 -0 -0 -0 -42 -1 -0 -0 -0
-296 -385 -444 -430 -387 -274 -223 -233 -216 -237 -261 -289 -256 -210 -167 -120 -0 -0 -0 -0 -0 -0 -0 -8 -1 -2 -1 -114 -0 -1 -0 -0 -1 -0 -0 -0 -0 -0 -32 -0 -0 -0 -0
-334 -410 -467 -467 -400 -341 -318 -309 -312 -308 -336 -303 -265 -236 -192 -134 -31 -0 -0 -0 -0 -0 -1 -0 -2 -1 -0 -0 -0 -1 -1 -0 -0 -1 -0 -0 -0 -0 -89 -0 -0 -0 -0
-0 -489 -514 -478 -409 -375 -385 -391 -374 -361 -373 -314 -288 -239 -0 -0 -0 -0 -0 -1 -1 -3 -0 -0 -0 -0 -0 -0 -0 -1 -1 -1 -0 -0 -0 -0 -0 -0 -46 -9 -2 -0 -0
-0 -0 -583 -518 -467 -445 -449 -418 -184 -0 -317 -286 -244 -206 -0 -0 -0 -5 -1 -0 -5 -6 -21 -9 -2 -0 -0 -0 -0 -0 -0 -0 -1 -0 -0 -0 -27 -0 -45 -17 -29 -7 -0
-0 -0 -0 -525 -543 -488 -476 -0 -0 -0 -303 -249 -204 -148 -23 -48 -30 -0 -0 -0 -0 -9 -19 -4 -0 -0 -0 -0 -0 -0 -0 -0 -0 -0 -5 -13 -6 -3 -7 -25 -27 -23 -12
-0 -0 -0 -0 -579 -557 -584 -0 -0 -367 -300 -229 -174 -119 -92 -29 -5 -5 -0 -0 -0 -0 -8 -0 -0 -0 -0 -1 -0 -0 -0 -0 -9 -2 -24 -7 -2 -2 -0 -10 -30 -24 -20
-0 -0 -0 -0 -659 -179 -0 -0 -0 -347 -247 -181 -119 -82 -44 -12 -3 -6 -0 -1 -0 -0 -0 -0 -0 -1 -0 -1 -1 -1 -0 -1 -7 -14 -11 -4 -4 -1 -0 -0 -1 -7 -28
-0 -0 -0 -0 -0 -0 -0 -0 -214 -243 -150 -112 -85 -80 -17 -1 -2 -0 -0 -0 -22 -14 -0 -0 -1 -0 -1 -1 -0 -0 -0 -0 -5 -6 -14 -5 -3 -9 -0 -0 -0 -1 -20
-0 -0 -0 -0 -0 -0 -0 -0 -278 -164 -100 -73 -77 -49 -5 -0 -0 -0 -3 -4 -31 -7 -1 -0 -0 -12 -3 -0 -0 -0 -1 -0 -0 -0 -18 -17 -20 -0 -3 -0 -0 -0 -1
-0 -0 -0 -0 -0 -0 -0 -0 -308 -201 -133 -75 -78 -57 -23 -18 -20 -0 -0 -0 -1 -0 -0 -0 -0 -3 -0 -2 -6 -0 -1 -2 -0 -0 -6 -23 -9 -1 -14 -3 -1 -17 -51
-0 -0 -0 -0 -0 -0 -0 -0 -228 -78 -38 -14 -93 -70 -29 -0 -6 -0 -0 -0 -0 -0 -0 -1 -0 -0 -2 -8 -6 -17 -22 -4 -17 -1 -1 -6 -3 -1 -15 -22 -27 -59 -17
-0 -0 -0 -0 -0 -0 -0 -172 -113 -52 -0 -0 -33 -0 -35 -11 -0 -3 -2 -3 -2 -5 -2 -10 -6 -2 -12 -13 -11 -12 -6 -6 -1 -13 -10 -0 -9 -15 -23 -10 -29 -28 -48
-0 -0 -0 -0 -0 -0 -304 -207 -57 -57 -0 -0 -0 -27 -15 -2 -6 -0 -17 -11 -9 -12 -14 -20 -7 -4 -5 -18 -16 -13 -9 -2 -2 -4 -3 -7 -21 -8 -7 -17 -21 -30 -11
Wind_Speed
7 8 8 7 8 8 9 9 10 11 12 13 13 13 13 14 15 16 17 17 18 19 19 19 20 21 22 22 22 21 22 22 22 21 22 21 20 17 16 16 13 7 5
9 8 7 7 7 7 8 9 9 10 11 12 13 13 14 14 16 16 18 19 20 21 21 22 21 21 22 23 23 22 22 23 23 23 23 23 22 19 17 17 16 10 3
8 8 7 6 6 6 7 8 9 10 11 11 12 14 14 15 15 16 18 20 22 22 22 23 24 23 22 24 25 23 22 22 23 24 24 24 24 21 20 18 17 12 4
7 7 6 6 5 6 6 7 8 9 10 11 11 12 13 15 17 18 18 19 21 23 24 23 23 25 24 23 26 25 24 23 23 24 25 25 25 24 23 23 19 14 7
6 6 5 6 5 5 5 6 7 8 9 10 11 11 11 13 15 16 17 18 20 21 23 24 24 25 25 24 26 25 26 25 24 22 24 25 26 25 26 26 23 20 14
4 5 4 4 4 3 4 4 6 7 9 10 12 13 11 12 12 15 17 18 20 21 22 24 26 27 26 24 24 25 24 24 24 23 23 24 27 27 27 27 26 21 17
3 3 3 3 2 3 3 3 4 6 9 10 11 12 11 9 12 16 16 17 20 22 22 25 27 28 29 27 24 24 23 23 25 23 23 24 25 28 29 29 28 22 17
2 2 2 2 2 1 1 2 3 6 9 10 12 12 13 13 12 13 15 19 20 17 19 24 26 28 28 28 27 24 24 22 23 23 25 25 25 27 29 30 29 23 15
1 1 1 1 2 1 1 2 3 6 9 12 14 15 15 17 16 17 18 19 20 21 22 22 23 25 27 26 27 25 25 23 24 23 26 26 25 26 28 29 29 26 18
3 2 1 0 1 0 1 2 3 6 9 12 14 16 17 18 18 20 21 21 21 21 21 21 22 25 26 27 27 26 25 25 26 25 26 27 26 28 28 29 29 27 21
5 3 2 1 1 1 3 4 4 5 9 12 15 16 17 18 19 19 21 19 20 20 21 21 23 26 30 28 24 24 24 24 24 26 25 25 27 29 29 29 29 27 23
6 6 4 3 3 2 3 4 5 7 10 12 15 16 18 18 18 18 18 17 19 19 22 24 26 27 26 22 18 19 23 23 24 26 27 26 28 30 30 30 30 27 23
9 6 6 5 4 4 5 5 7 8 11 13 15 15 17 17 16 16 16 16 17 17 17 21 24 25 23 19 18 19 20 22 24 25 25 26 29 30 30 30 29 26 23
10 9 7 6 5 5 5 5 6 9 11 13 14 14 16 15 14 14 14 15 15 17 18 20 22 24 23 20 19 18 17 20 22 23 25 27 28 29 30 30 30 27 22
12 9 9 7 6 5 5 5 6 10 11 13 14 13 15 13 13 14 13 15 15 16 19 21 21 21 20 17 17 17 15 17 20 24 25 26 28 29 29 29 29 27 22
12 11 10 8 6 4 3 3 6 10 12 13 13 13 13 12 13 13 11 12 14 15 17 16 16 18 18 16 15 14 14 17 21 24 25 26 27 29 29 29 28 27 23
10 10 10 8 6 5 3 3 6 10 11 14 12 12 12 11 13 12 11 12 14 12 15 13 14 15 16 16 16 15 17 19 22 24 25 26 27 26 29 28 28 27 25
10 8 7 7 6 4 2 2 7 9 12 12 11 12 11 10 10 8 9 11 12 14 14 13 12 13 13 14 13 14 16 18 23 24 25 26 25 25 25 26 27 29 28
8 6 7 8 7 4 1 4 7 10 12 10 11 13 12 11 7 6 8 10 10 12 13 12 13 14 15 15 14 13 16 20 23 22 24 24 24 24 23 23 24 25 24
4 4 6 8 6 3 1 5 9 11 11 11 12 13 13 11 9 9 11 11 11 12 13 11 12 15 16 14 13 14 17 20 22 21 23 22 23 24 23 23 23 23 21
2 2 6 7 6 3 2 6 10 11 11 11 13 14 14 12 11 11 10 11 10 9 10 12 14 13 11 11 11 14 17 20 22 21 20 21 22 23 23 21 22 21 21
2 1 5 7 7 2 4 7 12 11 12 14 15 16 15 15 14 12 10 10 7 9 10 10 9 9 11 14 11 12 17 19 19 19 18 20 22 23 21 19 19 17 12
4 3 5 7 6 2 5 9 11 12 14 15 15 17 16 15 14 12 9 9 9 8 8 8 6 7 10 12 9 18 20 22 19 19 16 20 21 21 19 17 15 10 3
3 4 7 7 5 4 5 8 9 13 14 15 16 17 16 15 14 13 10 10 9 10 10 17 21 22 24 25 22 24 20 17 20 18 18 19 21 21 19 14 11 7 5
7 9 8 7 6 5 6 8 10 12 13 15 16 16 16 15 14 13 12 12 14 16 19 22 24 24 24 25 26 24 21 19 19 18 22 24 19 19 18 11 9 6 9
12 12 10 8 7 7 7 9 11 13 14 16 16 16 15 13 13 13 14 17 19 19 21 23 23 24 23 22 24 26 23 20 22 22 21 24 22 19 17 13 8 7 19
Wind_Direction
50 87 96 74 51 39 36 31 25 17 9 3 0 356 351 345 337 328 322 320 318 314 312 309 305 300 295 290 290 289 286 284 284 285 284 284 283 286 284 282 291 314 359
73 89 98 75 57 50 44 41 33 23 14 6 358 353 349 342 334 328 322 316 313 310 305 301 301 301 294 289 288 288 285 282 281 282 281 281 279 280 280 278 278 292 325
72 78 97 82 69 62 57 51 42 35 30 21 5 350 343 337 332 325 318 313 309 308 306 298 294 296 295 289 283 286 285 284 281 279 278 279 277 276 275 276 276 279 279
75 75 99 104 94 80 66 53 44 31 24 19 13 3 346 335 323 318 315 313 310 307 303 303 298 291 293 292 283 282 282 284 283 280 276 276 275 274 272 271 273 272 264
73 70 97 116 109 95 69 55 39 30 23 18 13 7 357 341 328 322 316 314 312 311 306 300 299 294 293 292 286 283 279 279 283 284 279 276 273 273 270 268 271 270 266
57 50 81 118 108 91 79 58 37 28 24 19 4 357 356 345 335 325 319 315 314 311 306 302 298 293 292 293 289 284 283 282 280 282 282 278 272 271 269 268 269 271 268
51 47 61 122 123 115 88 56 40 20 14 14 7 1 356 352 339 327 322 317 314 310 306 300 296 292 289 290 290 288 285 283 281 281 281 278 275 271 267 266 266 272 275
36 112 50 142 152 137 81 49 23 8 5 6 4 359 353 348 342 335 327 320 315 314 309 301 297 293 291 290 287 286 284 284 283 280 277 277 275 272 269 266 266 269 266
329 157 49 96 164 175 72 31 8 355 355 356 357 354 350 346 341 336 330 323 317 311 307 304 300 296 293 291 287 282 281 280 280 279 275 274 276 273 271 268 266 266 260
298 213 203 110 154 151 351 356 351 353 354 352 352 351 348 345 340 335 330 324 319 315 309 303 300 296 292 288 286 282 279 277 275 276 274 273 273 272 271 269 266 264 261
287 260 259 265 291 333 350 355 352 353 353 351 351 350 349 345 341 337 332 328 325 319 314 308 302 293 283 285 286 282 278 277 275 273 276 276 273 270 270 269 267 264 261
271 245 239 276 293 311 346 358 358 353 351 352 350 349 347 344 342 339 336 333 327 322 311 303 297 296 292 293 292 282 276 275 273 273 273 273 272 269 266 267 266 265 261
267 255 246 273 296 305 327 349 355 353 350 349 348 348 347 346 345 342 340 339 332 328 323 311 304 299 301 297 294 286 280 274 272 273 275 274 270 267 265 265 265 266 260
268 246 255 270 290 294 315 334 343 345 347 349 349 349 347 347 344 341 341 340 337 326 321 317 312 306 300 296 292 289 281 274 275 276 274 273 272 268 264 264 263 266 259
274 253 258 257 265 274 298 326 336 340 345 349 350 350 347 346 345 342 339 332 335 332 322 316 313 311 307 301 292 287 283 277 277 276 274 273 271 268 263 261 263 264 259
282 262 243 252 253 264 272 306 329 338 344 348 350 349 348 347 344 342 342 337 332 330 326 326 324 318 314 306 294 288 283 280 277 275 272 272 271 266 261 260 262 262 259
277 272 239 218 208 201 231 298 330 338 345 346 349 350 349 345 340 336 335 333 330 330 328 330 325 323 315 304 293 288 282 279 276 272 269 269 270 265 258 258 260 261 258
287 251 230 214 193 197 219 316 336 343 345 348 351 349 347 343 342 343 340 338 338 330 329 330 328 324 321 311 299 288 281 278 272 269 267 267 267 262 259 257 259 259 257
278 255 237 200 189 184 173 342 342 343 346 350 352 351 351 350 353 355 352 348 347 336 329 326 322 316 311 303 295 286 280 274 269 269 267 265 261 258 258 260 258 257 257
274 236 206 185 185 167 42 350 344 344 346 351 352 355 356 0 6 359 350 344 342 332 324 328 321 315 308 301 292 280 275 269 265 266 264 262 258 254 255 258 257 256 257
292 228 181 174 164 151 5 346 343 344 351 354 356 359 359 4 3 359 353 347 343 335 331 326 322 318 312 300 290 277 271 264 256 262 263 258 256 253 254 258 257 258 261
312 220 166 163 158 143 356 352 351 357 359 358 359 359 2 1 1 1 359 359 8 349 343 341 334 326 300 275 279 265 256 251 252 258 262 258 252 248 251 255 257 259 260
330 152 151 145 139 78 13 0 0 3 1 0 2 2 4 4 9 13 26 37 33 30 17 8 1 315 283 271 282 244 237 237 245 251 260 248 244 240 245 248 251 249 235
15 107 123 123 106 61 25 10 13 0 2 7 5 6 9 13 18 26 46 58 65 67 104 150 159 157 194 217 228 223 236 246 239 243 246 239 233 234 237 244 244 233 169
95 112 112 102 86 57 29 28 16 11 13 9 10 10 15 22 30 42 65 82 110 141 155 157 162 177 191 202 208 216 222 230 231 235 225 222 227 230 231 243 238 224 218
106 111 108 98 77 49 50 29 22 20 17 12 14 13 23 31 49 84 74 123 148 169 165 165 179 186 199 206 201 200 208 216 220 223 223 213 216 224 235 241 237 228 217